Home   Weather   Wroclaw   Past weeks

Flag for Poland Past Weather in Wroclaw, Poland — Yesterday and Last 2 Weeks

Now
66 °F

Sunny.


Feels Like: 66 °F
Forecast: 47 / 68 °F
Wind: 8 mph from Southeast

Location: Wroclaw Ii

Current Time: Sep 25, 2016 at 5:45:19 PM

Latest Report: Sep 25, 2016 at 5:00 PM


Visibility: 10 mi

Pressure: 30.18 "Hg

Humidity: 43%

Dew Point: 43 °F

Location of WroclawLocation

Past Weather in Wroclaw — Graph

°F

Wroclaw Temperature Yesterday

Maximum temperature yesterday: 66 °F (at 1:30 PM)
Minimum temperature yesterday: 46 °F (at 3:00 AM)
Average temperature yesterday: 56 °F

High & Low Weather Summary for the Past Weeks

 TemperatureHumidityPressure
High88 °F (Sep 11, 3:30 PM)100% (Sep 11, 4:00 AM)30.30 "Hg (Sep 11, 4:00 AM)
Low37 °F (Sep 22, 5:00 AM)24% (Sep 14, 1:00 PM)29.80 "Hg (Sep 17, 4:30 AM)
Average61 °F74%30.07 "Hg
* Reported Sep 10 4:00 PM — Sep 25 4:00 PM, Wroclaw, Weather by CustomWeather, © 2016

Note: Actual official high and low records may vary slightly from our data, if they occured in-between our weather recording intervals... More about our weather records

Advertising

Wroclaw Weather History for the Previous 24 Hours

Scroll right to see more
 ConditionsComfort  
Time TempWeatherWind HumidityBarometerVisibility
4:00 PM
Sun, Sep 25
68 °FSunny.9 mph40%30.18 "Hg10 mi
3:30 PM66 °FPassing clouds.10 mph43%30.18 "HgN/A
3:00 PM68 °FPassing clouds.8 mph40%30.18 "HgN/A
2:30 PM66 °FPassing clouds.9 mph43%30.21 "HgN/A
2:00 PM66 °FSunny.10 mph43%30.21 "Hg10 mi
1:30 PM66 °FPassing clouds.10 mph46%30.21 "HgN/A
1:00 PM66 °FPassing clouds.10 mph46%30.21 "HgN/A
12:30 PM64 °FPassing clouds.10 mph56%30.24 "HgN/A
12:00 PM63 °FPassing clouds.12 mph59%30.24 "HgN/A
11:30 AM63 °FSunny.9 mph64%30.24 "Hg10 mi
11:00 AM59 °FSunny.9 mph72%30.24 "Hg10 mi
10:30 AM55 °FPassing clouds.7 mph94%30.24 "HgN/A
10:00 AM52 °FClear.7 mph100%30.27 "Hg6 mi
9:30 AM50 °FFog.6 mph100%30.27 "Hg1 mi
9:00 AM48 °FFog.6 mph100%30.27 "Hg0 mi
8:30 AM46 °FFog.5 mph100%30.27 "Hg1 mi
8:00 AM45 °FFog.5 mph100%30.27 "Hg0 mi
7:30 AM43 °FFog.5 mph100%30.27 "Hg0 mi
7:00 AM45 °FFog.6 mph100%30.24 "Hg0 mi
6:30 AM45 °FFog.3 mph100%30.24 "Hg0 mi
6:00 AM43 °FFog.3 mph93%30.24 "Hg1 mi
5:30 AM43 °FFog.2 mph93%30.24 "Hg1 mi
5:00 AM43 °FFog.1 mph93%30.24 "Hg1 mi
4:30 AM43 °FFog.1 mph100%30.24 "Hg1 mi
4:00 AM43 °FFog.No wind100%30.27 "Hg1 mi
3:30 AM45 °FFog.1 mph93%30.27 "Hg1 mi
3:00 AM43 °FFog.1 mph93%30.27 "Hg1 mi
2:30 AM46 °FFog.1 mph93%30.27 "Hg1 mi
2:00 AM46 °FFog.1 mph100%30.27 "Hg1 mi
1:30 AM46 °FFog.No wind100%30.27 "Hg3 mi
1:00 AM48 °FFog.1 mph94%30.27 "Hg4 mi
12:30 AM48 °FFog.1 mph94%30.27 "Hg5 mi
12:00 AM48 °FFog.1 mph100%30.27 "Hg5 mi
11:30 PM
Sat, Sep 24
50 °FFog.1 mph94%30.27 "Hg3 mi
11:00 PM50 °FFog.1 mph94%30.27 "Hg4 mi
10:30 PM50 °FFog.1 mph94%30.27 "HgN/A
10:00 PM50 °FFog.1 mph100%30.27 "HgN/A
9:30 PM50 °FFog.1 mph94%30.27 "HgN/A
9:00 PM52 °FFog.1 mph94%30.27 "HgN/A
8:30 PM52 °FClear.1 mph94%30.27 "Hg10 mi
8:00 PM54 °FClear.1 mph88%30.27 "Hg10 mi
7:30 PM55 °FClear.1 mph82%30.27 "Hg10 mi
7:00 PM57 °FClear.1 mph82%30.27 "Hg10 mi
6:30 PM61 °FPassing clouds.1 mph72%30.27 "HgN/A
6:00 PM63 °FPassing clouds.2 mph64%30.27 "HgN/A
5:30 PM64 °FPassing clouds.5 mph60%30.27 "HgN/A
5:00 PM64 °FPassing clouds.9 mph64%30.27 "HgN/A
Weather by CustomWeather, © 2016

See weather overviewHow to use our weather pages